Weather History for Guymon, OK

Change the Weather History Date:

Saturday, April 5, 2014

  Actual Average Record
Temperature  
Mean Temperature 50 °F 52 °F  
Max Temperature 59 °F 67 °F 90 °F (2006)
Min Temperature 41 °F 37 °F 27 °F (2009)
Degree Days  
Heating Degree Days 15 13  
Month to date heating degree days 76 68  
Since 1 July heating degree days 4247 4116  
Cooling Degree Days 0 0  
Month to date cooling degree days 0 0  
Year to date cooling degree days 1 2  
Moisture  
Dew Point 29 °F    
Average Humidity 56    
Maximum Humidity 89    
Minimum Humidity 23    
Precipitation  
Precipitation T in 0.05 in 0.27 in (1999)
Month to date precipitation T 0.24  
Year to date precipitation 0.55 2.54  
Snow  
Snow 0.00 in - - ()
Month to date snowfall 0.0  
Since 1 July snowfall 14.2  
Snow Depth 0.00 in    
Sea Level Pressure  
Sea Level Pressure 29.92 in    
Wind  
Wind Speed 14 mph (SSE)    
Max Wind Speed 25 mph    
Max Gust Speed 34 mph    
Visibility 10 miles    
Events Rain    
T = Trace of Precipitation, MM = Missing Value Source: NWS Daily Summary

Daily Weather History Graph

Daily Weather History Graph

Search for Another Location

Airport:

Trip Planner

Search our weather history database for the weather conditions in past years. The results will help you decide how hot, cold, wet, or windy it might be!

Date:

Astronomy

Apr. 05, 2014 Rise Set
Actual Time 7:26 AM CDT 8:11 PM CDT
Civil Twilight 6:59 AM CDT 8:38 PM CDT
Nautical Twilight 6:28 AM CDT 9:09 PM CDT
Astronomical Twilight 5:57 AM CDT 9:40 PM CDT
Moon 11:41 AM CDT (4/5) 1:17 AM CDT (4/5)
Length of Visible Light 13h 38m
Length of Day
12h 45m
Waxing Crescent, 34% of the Moon is Illuminated
Apr 5
Waxing Crescent
Apr 7
First Quarter
Apr 15
Full
Apr 22
Last Quarter
Apr 29
New

Hourly Weather History & Observations

Time (CDT) Temp. Windchill Dew Point Humidity Pressure Visibility Wind Dir Wind Speed Gust Speed Precip Events Conditions
12:53 AM 45.0 °F 39.7 °F 21.0 °F 39% 29.97 in 10.0 mi SSE 10.4 mph - N/A   Clear
1:53 AM 42.1 °F 36.1 °F 21.0 °F 43% 29.97 in 10.0 mi SSE 10.4 mph - N/A   Clear
2:53 AM 43.0 °F 36.4 °F 21.0 °F 42% 29.96 in 10.0 mi SSE 12.7 mph - N/A   Clear
3:53 AM 43.0 °F 36.0 °F 21.9 °F 43% 29.94 in 10.0 mi South 13.8 mph - N/A   Clear
4:53 AM 41.0 °F 33.9 °F 23.0 °F 49% 29.94 in 10.0 mi South 12.7 mph - N/A   Clear
5:53 AM 41.0 °F 34.3 °F 23.0 °F 49% 29.93 in 10.0 mi South 11.5 mph - N/A   Clear
6:53 AM 42.1 °F 35.7 °F 24.1 °F 49% 29.94 in 10.0 mi South 11.5 mph - N/A   Clear
7:53 AM 42.1 °F 34.9 °F 24.1 °F 49% 29.95 in 10.0 mi South 13.8 mph - N/A   Clear
8:53 AM 45.0 °F 37.6 °F 25.0 °F 46% 29.96 in 10.0 mi South 17.3 mph 24.2 mph N/A   Clear
9:53 AM 46.9 °F - 26.1 °F 44% 29.96 in 10.0 mi South 17.3 mph - N/A   Scattered Clouds
10:53 AM 51.1 °F - 27.0 °F 39% 29.96 in 10.0 mi South 18.4 mph 27.6 mph N/A   Partly Cloudy
11:53 AM 55.0 °F - 25.0 °F 31% 29.95 in 10.0 mi South 20.7 mph 28.8 mph N/A   Mostly Cloudy
12:53 PM 59.0 °F - 21.9 °F 24% 29.91 in 10.0 mi South 18.4 mph 27.6 mph N/A   Scattered Clouds
1:53 PM 57.0 °F - 21.9 °F 26% 29.91 in 10.0 mi South 16.1 mph - 0.00 in Rain Light Rain
2:53 PM 57.0 °F - 32.0 °F 39% 29.89 in 10.0 mi SSW 19.6 mph 34.5 mph 0.00 in Rain Light Rain
3:53 PM 55.9 °F - 32.0 °F 40% 29.86 in 10.0 mi SE 15.0 mph - 0.00 in   Overcast
4:53 PM 51.1 °F - 37.9 °F 61% 29.88 in 10.0 mi South 16.1 mph - 0.00 in Rain Light Rain
5:53 PM 48.0 °F - 41.0 °F 77% 29.88 in 10.0 mi SSE 13.8 mph - 0.00 in   Overcast
6:53 PM 48.0 °F - 41.0 °F 77% 29.88 in 10.0 mi SE 12.7 mph - N/A   Overcast
7:53 PM 46.0 °F 39.9 °F 37.9 °F 73% 29.88 in 10.0 mi SE 13.8 mph - N/A   Overcast
8:53 PM 45.0 °F 38.9 °F 37.9 °F 76% 29.88 in 10.0 mi ESE 12.7 mph - N/A   Scattered Clouds
9:53 PM 45.0 °F 38.9 °F 37.9 °F 76% 29.90 in 10.0 mi ESE 12.7 mph - N/A   Overcast
10:53 PM 44.1 °F 38.1 °F 37.9 °F 79% 29.91 in 10.0 mi ESE 11.5 mph - N/A   Scattered Clouds
11:53 PM 43.0 °F 37.2 °F 39.0 °F 86% 29.91 in 10.0 mi SE 10.4 mph - N/A   Overcast